Location: Central Falls
(41.8900°N, 71.3929°W)
Time: 07:07:45
(UTC+00:00)

Tiros 1 despin weight - Pass Details

Date: 12 December 2023
Orbit: 581 x 624 km, 48.2° (Epoch: 29 February)

Event Time Altitude Azimuth Distance (km) Brightness Sun altitude
Rises 23:43:01 0° 294° (WNW) 2,807 ? -26.7°
Reaches altitude 10° 23:45:24 10° 301° (WNW) 1,902 ? -27.2°
Enters shadow 23:47:52 29° 322° (NW) 1,082 ? -27.6°
Maximum altitude 23:49:33 43° 13° (NNE) 823 - -27.9°
Drops below altitude 10° 23:53:42 10° 86° (E) 1,894 - -28.7°
Sets 23:56:03 0° 93° (E) 2,793 - -29.1°
